www.pogodaiklimat.ru

Погода и климат >> Архив погоды >> Россия >> Якутия >> Якутск


АРХИВ ПОГОДЫ в Якутске

Время (UTC), дата Ветер
(напр.,м/с)
 
Видим.   Явления Облачность Т
(С)
Тd
(С)
f
(%)
Тe
(С)
Тes
(С)
Комфортность P
(гПа)
Po
(гПа)
Тmin
(С)
Tmax
(С)
R
(мм)
R24
(мм)
S
(см)
00 14.06 В 2 50 км 8/4 600 м
[Cu med, cong Ac trans Ci fib]
+16.0 +8.4 61 +16 +20 по сезону 1016.5 1004.5 +8.4
03 14.06 Ю 3 50 км 6/3 600 м
[Cu hum Ac trans Ci fib]
+18.4 +4.1 39 +19 +25 по сезону 1015.4 1003.5
06 14.06 ЮВ 2 50 км 10/6 600 м
[Cb cap Ac trans Ci fib]
+19.4 +3.7 35 +20 +22 по сезону 1014.3 1002.5
09 14.06 Ю 2 50 км 10/4 600 м
[Cu med, cong Ac trans Ci fib]
+19.7 +4.1 36 +21 +22 комфорт 1014.1 1002.3
12 14.06 ЮЗ 2 50 км 10/3 1000 м
[Sc Ac trans Ci fib]
+17.7 +6.5 48 +18 +18 по сезону 1014.2 1002.4 +20.3
15 14.06 З 1 20 км 10/0
[Ac trans Ci fib]
+14.7 +7.4 62 +15 +15 по сезону 1015.1 1003.1
18 14.06 ЮЗ 1 50 км 6/0
[Ac trans Ci fib]
+12.3 +7.5 72 +12 +12 тепло 1015.8 1003.7
21 14.06 Ю 1 50 км 1/0
[Ac trans]
+13.9 +8.6 70 +14 +17 по сезону 1015.9 1003.8
00 15.06 Ю 2 50 км 4/3 600 м
[Cu med, cong Ci fib]
+17.9 +10.0 60 +18 +24 тепло 1015.8 1003.9 +10.5
03 15.06 ЮВ 2 50 км 6/3 600 м
[Cu med, cong Ci fib]
+20.9 +4.8 35 +22 +31 комфорт 1014.9 1003.2
06 15.06 ЮЗ 3 50 км 3/3 600 м
[Cu med, cong Ci fib]
+22.4 +3.4 29 +22 +28 комфорт 1013.3 1001.6
09 15.06 Ю 2 50 км 3/1 600 м
[Cu med, cong Ci fib]
+23.0 +3.8 29 +23 +26 комфорт 1012.1 1000.5
12 15.06 ЮЗ 2 50 км 3/0
[Ci fib]
+19.7 +5.3 39 +21 +21 комфорт 1011.4 999.6 +23.1
15 15.06 З 2 50 км 3/0
[Ci fib]
+15.3 +4.9 50 +15 +15 по сезону 1010.9 998.9
18 15.06 ЮЗ 1 50 км 8/0
[Ac trans Ci fib]
+15.4 +5.3 51 +16 +16 тепло 1009.6 997.7
21 15.06 Ю 2 50 км 10/6 600 м
[Cb cap Ac trans Ci fib]
+16.6 +6.8 52 +17 +17 тепло 1008.3 996.5
00 16.06 Ю 3 50 км {ливн. осадки} 10/6 600 м
[Sc Ac trans Ci fib]
+19.3 +7.9 48 +20 +22 тепло 1006.2 994.4 +15.0 0.0
03 16.06 З 3 50 км 10/3 1000 м
[Cu med, cong Ac trans Ci fib]
+26.6 +6.4 28 +26 +30 жарко 1003.2 991.8
06 16.06 ЮЗ 2
{13}
50 км в посл. час ливневой дождь 10/6 600 м
[Cb cap Ac trans Ci fib]
+24.5 +8.8 37 +25 +27 комфорт 1001.0 989.5
09 16.06 С 2
{10}
50 км {ливн. осадки} 10/6 600 м
[Cu med, cong Ac trans Ci fib]
+26.8 -1.2 16 +25 +25 комфорт 999.9 988.5
12 16.06 СЗ 2 50 км {ливн. осадки} 8/0
[Ac trans Ci fib]
+23.4 -2.7 17 +22 +22 комфорт 999.9 988.4 +27.8 0.0
15 16.06 З 1 50 км 4/0
[Ci fib]
+13.8 -0.4 38 +14 +14 по сезону 1000.8 988.9
18 16.06 З 1 50 км 4/0
[Ci fib]
+10.8 +4.2 64 +11 +11 по сезону 1000.6 988.6
21 16.06 З 2 50 км 3/0
[Ci fib]
+15.6 +3.2 43 +16 +18 тепло 1000.5 988.7
00 17.06 З 4 50 км ясно +19.6 +0.9 29 +20 +26 тепло 1000.2 988.5 +9.5
03 17.06 З 5-10
{12}
50 км 4/3 600 м
[Cu hum Ci fib]
+22.9 +3.0 27 +23 +27 комфорт 999.7 988.1
06 17.06 З 4
{10}
50 км 10/5 600 м
[Cu hum Ci fib]
+23.5 +3.2 27 +23 +26 комфорт 998.9 987.4
09 17.06 С 1 50 км 10/6 600 м
[Cb cap Ac trans Ci fib]
+22.0 +4.2 31 +22 +23 комфорт 999.1 987.5
12 17.06 СЗ 4
{11}
20 км слабый ливневой дождь 10/6 600 м
[Cb cap Ac trans]
+12.4 +10.3 87 +10 +10 очень
холодно
1000.9 989.0 +24.7 1
15 17.06 штиль 0
{10}
20 км слабый дождь {ливн. осадки} 10/10 720 м
[Sc]
+11.6 +10.4 92 +11 +11 прохладно 1000.8 988.8
18 17.06 З 1 50 км {ливн. осадки, дождь} 10/8 800 м
[Cb cap Ac trans]
+11.3 +10.8 97 +11 +11 по сезону 1000.8 988.8
21 17.06 ЮЗ 2 50 км 10/5 600 м
[Cb cap Ac trans]
+11.6 +10.7 94 +10 +11 прохладно 1001.3 989.4
00 18.06 ЮЗ 1 50 км 10/6 1000 м
[Cu Sc Ac trans]
+12.5 +10.6 88 +12 +14 холодно 1002.9 990.9 +11.3 10
03 18.06 Ю 3 50 км 10/6 1000 м
[Cb cap Ac trans]
+13.7 +11.7 88 +13 +14 холодно 1004.1 992.2
06 18.06 Ю 4 50 км 10/4 600 м
[Cb cap Ac trans Ci fib]
+15.6 +12.3 81 +15 +17 очень
холодно
1004.5 992.7
09 18.06 ЮВ 2 50 км 10/4 600 м
[Cb cap Ac trans Ci fib]
+14.0 +10.7 80 +13 +14 очень
холодно
1005.8 993.9
12 18.06 ЮВ 1 50 км 10/4 1000 м
[Cb cap Ac trans Ci fib]
+13.2 +10.4 83 +13 +13 холодно 1006.8 994.8 +15.8
15 18.06 штиль 0 50 км 10/4 1000 м
[Cb cap Ac trans Ci fib]
+11.5 +9.9 90 +11 +11 прохладно 1007.2 995.2
18 18.06 СЗ 1 50 км 10/3 1000 м
[Sc Ac trans]
+9.5 +8.8 95 +9 +9 по сезону 1007.6 995.5
21 18.06 СВ 1 50 км в посл. час ливневой дождь 10/6 600 м
[Cb cap Ac trans]
+11.8 +10.2 90 +12 +12 по сезону 1007.8 995.8
00 19.06 СВ 3 50 км {ливн. осадки} 10/3 600 м
[Cu med, cong Ac trans Ci fib]
+17.6 +13.1 75 +18 +20 по сезону 1007.2 995.4 +9.1 0.0
03 19.06 В 2 50 км 10/3 600 м
[Cu med, cong Ac trans Ci fib]
+19.3 +14.5 74 +21 +26 комфорт 1006.9 995.2
06 19.06 Ю 2 50 км 10/3 600 м
[Cu med, cong Ac trans Ci fib]
+21.7 +6.4 37 +22 +26 комфорт 1005.6 994.0
09 19.06 ЮЗ 2 50 км 10/0
[Ac trans Ci fib]
+23.1 +5.7 32 +23 +26 комфорт 1005.0 993.4
12 19.06 штиль 0 50 км 10/0
[Ac trans Ci fib]
+17.2 +12.3 73 +17 +17 прохладно 1004.8 993.1 +23.3
15 19.06 штиль 0 50 км 10/4 1000 м
[Sc Ac trans Ci fib]
+13.5 +10.1 80 +13 +13 по сезону 1004.9 993.0
18 19.06 С 1 50 км 10/6 1000 м
[Sc Ac trans Ci fib]
+12.8 +10.1 84 +13 +13 тепло 1004.6 992.6
21 19.06 В 1 50 км 10/8 960 м
[Cb cap Ac trans]
+14.7 +9.3 70 +15 +15 по сезону 1004.5 992.6
00 20.06 ЮВ 2 50 км 8/3 1000 м
[Sc Ac trans Ci fib]
+16.6 +10.2 66 +17 +21 по сезону 1004.5 992.7 +12.5
03 20.06 ЮВ 3 50 км 10/4 1000 м
[Cu med, cong Ac trans Ci fib]
+21.4 +5.3 35 +22 +25 комфорт 1003.5 991.9
06 20.06 ЮВ 3 50 км 10/3 1000 м
[Cu med, cong Ac trans Ci fib]
+23.4 +8.3 38 +25 +28 комфорт 1002.1 990.6
09 20.06 Ю 4 50 км 8/3 1000 м
[Cu med, cong Ac trans Ci fib]
+23.0 +7.7 37 +24 +25 комфорт 1001.5 989.9
12 20.06 ЮВ 3 50 км 6/3 1000 м
[Sc Ac trans Ci fib]
+20.2 +10.9 55 +22 +22 комфорт 1001.6 990.0 +23.6
15 20.06 ЮВ 1 50 км 10/4 1000 м
[Sc Ac trans Ci fib]
+17.8 +12.0 69 +19 +19 тепло 1001.9 990.1
18 20.06 ЮВ 4 50 км 10/4 1000 м
[Sc Ac trans Ci fib]
+15.8 +10.3 70 +15 +15 тепло 1002.4 990.6
21 20.06 ЮВ 3 50 км 6/3 1000 м
[Sc Ac trans Ci fib]
+13.9 +9.5 75 +13 +14 по сезону 1003.3 991.4

 

Местоположение метеостанции Якутск (Якутия, Россия): широта 62.00 долгота 129.60 высота над уровнем моря 101 м.

В архиве по умолчанию представлена погода в Якутске за последнюю неделю. Архивные данные за месяц целиком и за предыдущие месяцы, начиная с января 2011 года, Вы можете получить, выбрав интересующий диапазон дат из раскрывающегося списка и нажав кнопку "Ввод!".


*Определитесь, кто Вы:
робот инопланетянин человек

Внимание! Время в таблицах - всемирное. Для получения местного времени необходимо прибавить поправку, которая в Якутске равна 9 ч.

Смотрите также архив погоды в соседних городах и на ближайших метеорологических станциях:

Погода в Покровске (Якутия, Россия) (64 км)
Погода в Намцах (Якутия, Россия) (80 км)
Погода в Бердигестяхе (Якутия, Россия) (138 км)
Погода в Чурапче (Якутия, Россия) (157 км)
Погода в Батамае (Якутия, Россия) (169 км)
Погода в Тегюльте (Якутия, Россия) (172 км)
Погода в Амге (Якутия, Россия) (173 км)
Погода в Верхоянском Перевозе (Якутия, Россия) (191 км)
Погода в Ытык-Кюёле (Якутия, Россия) (207 км)
Погода в Сеген-Кюели (Якутия, Россия) (225 км)

Пояснения к столбцам:

Ветер - указаны скорость ветра в м/с - средняя за 10 мин, порывы в срок и между сроками (в фигурных скобках) и направление, откуда дует ветер: С - северный, СВ - северо-восточный, В - восточный, ЮВ - юго-восточный, Ю - южный, ЮЗ - юго-западный, З - западный, СЗ - северо-западный.
Видимость - горизонтальная дальность видимости в метрах или километрах. При видимости от 1 до 10 км при отсутствии осадков обычно наблюдается дымка, при ухудшении видимости до 1 км и менее - туман. В сухую погоду видимость может ухудшаться дымом, пылью или мглою.
Явления - указаны атмосферные явления, наблюдавшиеся в срок или в последний час перед сроком; фигурными скобками обозначены явления, наблюдавшиеся между сроками (за 1-3 часа до срока); квадратными скобками обозначены град или гололедные отложения с указанием их диаметра в мм.
Облачность - указаны через наклонную черту общая и нижняя облачность в баллах и высота нижней границы облаков в метрах; квадратными скобками обозначены формы облаков: Ci - перистые, Cs - перисто-слоистые, Cc - перисто-кучевые, Ac - высококучевые, As - высокослоистые, Sc - слоисто-кучевые, Ns - слоисто-дождевые, Cu - кучевые, Cb - кучево-дождевые. Подробнее классификацию облаков см. в Атласе облаков (PDF).
T - Температура воздуха - температура, измеренная на высоте 2 м над землей.
Td - Температура точки росы - температура, при понижении до которой содержащийся в воздухе водяной пар достигнет насыщения.
f - Относительная влажность воздуха - влажноcть воздуха, измеренная на высоте 2 м над землей.
Te - Эффективная температура - температура, которую ощущает одетый по сезону человек в тени. Характеристика душности погоды. При расчете учитывается влияние влажности воздуха и скорости ветра на теплоощущения человека.
Tes - Эффективная температура на солнце - температура, которую ощущает человек, с поправкой на солнечный нагрев. Характеристика знойности погоды. Зависит от высоты солнца над горизонтом, облачности и скорости ветра. Ночью, в пасмурную погоду, а также при ветре 12 м/с и более поправка равна нулю.
P - Атмосферное давление - приведенное к уровню моря атмосферное давление.
Po - Атмосферное давление - измеренное на уровне метеостанции атмосферное давление.
Tmin - Минимальная температура - минимум температуры воздуха на высоте 2 м над землей.
Tmax - Максимальная температура - максимум температуры воздуха на высоте 2 м над землей.
R - Количество осадков - Количество выпавших осадков за период времени, мм. При наведении курсора мыши на число - период времени, за который выпало указанное количество осадков.
R24 - Количество осадков - Количество выпавших осадков за 24 часа, мм.
S - Снежный покров - Высота снежного покрова, см. При наведении курсора мыши на число - состояние снежного покрова и степень покрытия местности в баллах.